NOAA 16 DEB

Satellite information

Favourite Embed

Satellite Type and Status

DEBRISIN ORBIT

Key statistics

Satellite NOAA 16 DEB at a glance.

Uptime

9214

Days in orbit

Revolutions

≈ 14.2

Per day

Orbit

SSO

Sun Synchronous Orbit

Inclination

98.5

Latest

Satellite identification and parameters

Extended collection of information and parameters for NOAA 16 DEB.

Object identification

Identified? True

Debris? True

Object name: NOAA 16 DEB

International designator: 2000-055AA

Object number (NORAD): 41067

Object ID (CCSDS): 41067

Country: UNITED STATES OF AMERICA (US)

Current information (Y/N): Y

RCS size: SMALL

Orbital parameters

Period: 101.579 minutes

Inclination: 98.541 deg

SMA: 7211.58 km

Apoapsis: 837.22 km

Periapsis: 829.67 km

RAAN: 21.8882 deg

Eccentricy: 0.00052349

Argument of periapsis: 98.2101 deg

Mean anomaly: 261.9669 deg

Mean motion: 14.17611097 rev/day

Mean motion (dot): 0.00001818 rev/day2

B* drag term: 0.00091497375 1/REarth

Two-line elements (TLE)

Creation date: Dec. 12, 2025, 10:14 a.m.

Reference frame: TEME

Reference center: EARTH

Epoch: Dec. 12, 2025, 1:33 a.m. UTC

TLE line 0: 0 NOAA 16 DEB

TLE line 1: 1 41067U 00055AA 25346.06511674 .00001818 00000-0 91497-3 0 9999

TLE line 2: 2 41067 98.5410 21.8882 0005235 98.2101 261.9669 14.17611097518293

Live tracking on map

Real-time ground track for satellite NOAA 16 DEB.

In-orbit conjunctions

A list of the most updated potential collisions computed for object NOAA 16 DEB.

Target Orbit TCA Probability of collision Miss distance Type
CZ-6A DEB LEO 2025-03-28 22:41:18 0.0001447105 234.0 (m) DEBRIS
CZ-6A DEB LEO 2025-01-24 20:50:40 0.0002485012 848.0 (m) DEBRIS

Associated space launch

The NOAA K, L and M POES satellites begin the fifth generation of improved environmental monitoring in support of NOAA missions. The instrument payload has significant improvements and additions/deletions. The instrument changes have effected the spacecraft subsystems and data formats.

NOAA 16 DEB was lifted into orbit during the mission ‘Titan II SLV | NOAA 16’, on board a Titan II SLV space rocket.

The launch took place on Sept. 21, 2000, 10:22 a.m. from Space Launch Complex 4W.

For more information about the launch, click the button.

Launch to space Titan II SLV | NOAA 16
Titan II SLV | NOAA 16

Agency: N/A

Status: Launch Successful

Launch date: Sept. 21, 2000, 10:22 a.m. UTC

Rocket: Titan II SLV

Launch pad: Space Launch Complex 4W

Location: Vandenberg SFB, CA, USA

...

Latest news about this satellite

There are no fresh news available about this satellite. Check back as we update our databases every day.


Newsletter sign-up

Weekly statistics, charts and insights to help you stay on top of the space industry.